Wind_Speed
18 21 23 26 29 31 32 33 33 32 32 33 36 38 38 39 42 43 44 45 46 46 47 47 46 46 45 44 43 42 41 40 40 39 38 37 37 37 36 35 35 35 34 33
17 19 20 24 28 30 31 32 32 32 32 33 34 35 36 37 40 42 44 44 45 46 47 48 47 47 46 45 44 43 42 42 41 40 39 39 39 38 37 37 37 36 35 34
17 17 20 23 27 29 31 32 31 31 31 33 33 34 36 37 38 40 43 44 45 46 47 48 49 48 47 47 46 45 44 43 42 42 41 41 40 39 38 38 38 38 36 36
15 16 18 22 25 28 30 30 30 31 32 33 34 35 35 37 38 40 42 44 44 45 46 47 48 49 48 48 47 46 46 45 44 44 42 41 40 39 39 39 40 40 39 37
15 15 17 20 23 25 27 28 29 30 33 34 33 35 34 35 37 39 41 43 44 45 45 46 47 48 49 49 48 47 47 46 45 44 43 42 42 41 40 40 40 40 39 38
14 15 16 18 21 23 24 26 28 30 31 33 33 33 34 35 35 37 39 41 43 44 45 45 46 48 49 50 50 49 48 47 47 46 45 44 43 43 42 41 40 40 39 39
14 15 15 16 19 22 23 25 26 28 30 31 31 33 34 33 34 35 37 38 41 43 44 45 46 47 49 50 50 50 49 48 48 47 46 45 45 44 44 42 42 41 40 40
14 14 14 14 16 19 21 22 25 27 29 30 32 33 32 32 33 34 35 36 38 41 42 44 45 45 47 49 51 51 50 49 48 48 48 47 46 46 45 44 43 42 42 42
15 14 14 14 14 17 20 22 22 25 28 30 30 31 31 31 32 33 34 35 36 38 40 41 43 44 45 48 50 50 50 50 49 49 49 48 48 48 47 46 45 44 43 43
16 16 14 14 14 16 19 20 21 23 27 29 30 31 29 30 31 33 34 34 36 37 39 39 41 43 45 46 48 49 51 51 50 50 49 49 49 49 49 48 46 46 45 45
17 16 15 15 15 16 17 19 21 23 25 27 29 30 28 28 29 31 33 34 35 37 39 38 39 41 43 45 47 48 49 50 50 50 50 50 50 50 49 48 48 47 47 46
16 16 17 16 16 17 17 18 19 22 24 25 27 27 28 28 28 29 32 34 34 36 38 39 39 40 42 44 45 48 48 49 50 50 50 51 51 50 50 49 48 48 48 47
16 17 17 17 17 18 19 19 20 22 23 23 24 25 27 26 27 28 30 32 34 36 38 39 39 40 42 43 45 46 47 48 49 50 51 50 51 50 50 49 50 49 48 48
17 18 18 18 19 20 20 20 21 22 24 24 23 23 24 26 27 28 30 32 33 35 36 38 39 40 41 42 44 45 46 48 48 49 50 51 51 50 49 49 50 49 50 49
17 18 18 19 21 21 21 22 23 24 24 25 23 23 24 26 27 29 30 32 33 35 36 37 39 40 41 42 44 45 47 48 48 48 48 50 50 50 50 49 49 49 50 50
18 18 19 19 20 21 22 23 25 26 27 26 26 26 25 26 27 27 29 31 33 35 36 37 39 39 40 41 42 43 45 46 48 49 48 48 48 49 50 49 49 49 49 49
19 19 20 19 20 21 22 23 25 28 29 29 28 27 27 27 28 28 29 30 31 33 35 37 38 39 40 41 42 43 45 46 47 48 49 49 49 50 51 50 49 49 49 48
19 20 21 20 20 21 20 22 24 25 27 29 29 29 29 29 29 28 28 29 30 32 34 35 37 38 39 40 42 43 45 46 46 47 48 49 49 50 50 50 49 49 49 48
19 20 21 21 21 21 20 21 23 25 26 28 29 29 29 29 29 28 28 29 30 31 32 33 34 36 38 39 41 42 43 44 45 46 47 48 48 48 49 49 49 49 49 49
20 20 21 21 22 21 19 21 22 24 25 26 28 28 29 28 28 27 28 29 29 30 30 32 33 35 37 39 40 42 42 44 45 45 46 48 48 48 48 48 48 48 48 48
21 21 21 21 22 22 21 21 22 23 23 24 26 27 27 28 27 27 27 28 29 30 30 32 33 35 37 39 40 42 42 43 44 45 46 48 48 48 48 48 48 48 49 49
22 22 22 22 22 22 22 23 23 23 23 24 25 26 27 28 28 28 28 28 28 29 30 31 32 34 36 38 39 40 41 42 43 44 44 45 46 47 47 48 47 48 48 48
23 23 23 23 23 23 23 24 24 25 25 25 26 26 26 27 28 29 29 29 29 28 29 30 31 32 34 36 39 40 41 41 41 41 42 43 44 45 46 46 46 46 46 47
25 25 24 24 23 23 23 23 24 24 25 26 26 27 27 27 28 29 29 30 30 30 30 31 31 32 33 35 36 37 38 39 40 41 41 41 41 42 44 45 45 46 46 46
27 26 25 24 23 22 21 22 22 23 24 25 26 26 27 28 28 29 29 30 30 30 30 30 31 31 32 33 35 36 37 37 38 39 39 40 40 41 41 42 43 44 44 44
27 26 26 25 24 23 21 21 22 23 24 25 25 26 26 27 27 28 29 30 30 30 31 30 30 31 31 32 33 34 36 36 37 37 38 38 39 39 40 41 41 42 43 43
Wind_Direction
249 245 240 240 240 240 240 239 238 238 238 238 237 236 235 234 234 232 230 229 229 230 230 230 230 231 233 234 235 236 237 238 240 241 243 244 245 246 248 249 250 251 253 254
255 250 243 242 242 240 238 238 238 237 237 238 238 237 234 234 234 232 230 230 229 229 230 231 231 231 233 234 235 236 237 238 240 241 243 244 245 246 248 250 250 251 252 255
264 257 248 245 243 239 238 238 238 238 236 238 238 236 235 236 236 234 232 231 230 230 231 231 232 232 233 234 235 237 237 238 240 241 243 244 245 247 249 250 252 252 254 256
269 260 253 250 246 240 237 237 239 239 238 238 237 239 237 236 237 236 234 232 231 231 231 232 232 233 234 235 236 237 238 238 240 241 243 244 245 247 249 251 252 252 254 255
273 262 256 254 247 241 240 239 240 240 241 241 240 243 242 240 238 237 236 234 233 231 232 232 232 233 233 234 235 237 238 239 240 241 242 243 245 247 249 251 252 253 253 254
272 266 261 257 248 241 239 239 241 243 243 243 243 246 245 243 241 239 238 237 235 233 233 233 233 233 234 235 236 237 238 239 240 241 242 243 245 247 249 251 252 252 254 255
274 267 263 260 248 241 240 240 242 244 244 246 245 248 247 245 242 241 241 239 237 236 234 233 234 235 235 235 235 236 238 239 240 242 243 245 246 247 248 250 252 252 254 256
282 272 269 266 254 245 241 239 242 245 246 245 246 248 246 246 243 243 242 239 239 237 236 235 234 235 236 236 236 237 238 239 241 242 243 245 246 247 248 250 252 253 254 256
287 277 270 268 262 249 241 240 244 250 250 250 248 247 247 245 245 243 240 239 239 237 237 236 235 236 236 236 236 237 239 239 241 242 243 244 245 247 248 249 251 253 255 256
287 282 273 268 262 253 247 244 249 253 255 256 253 250 250 248 246 244 241 240 240 239 237 237 237 237 238 238 237 238 239 239 240 241 243 244 245 247 248 250 251 253 255 257
285 282 278 272 264 258 251 246 250 254 257 261 262 257 254 252 248 245 242 242 242 240 239 239 240 240 239 239 238 238 239 240 241 242 243 243 245 247 248 250 252 253 255 257
284 284 281 272 263 257 255 252 253 255 256 262 264 261 256 253 251 250 247 245 245 244 242 243 243 242 241 241 240 239 240 241 242 243 243 243 244 246 248 249 251 253 254 256
285 285 284 275 264 260 260 258 256 257 257 261 263 261 257 256 255 254 252 250 249 248 246 245 244 243 242 242 241 240 240 242 242 243 243 244 244 246 247 249 250 252 254 255
288 285 282 278 271 266 262 259 256 256 256 258 262 262 260 260 259 257 254 253 252 251 250 248 247 245 243 242 242 241 241 242 243 243 243 243 244 246 248 249 250 252 254 256
296 288 286 283 275 268 263 258 257 255 254 256 259 261 261 262 263 261 258 256 254 253 251 250 249 247 245 244 243 241 241 242 243 244 244 243 244 246 247 249 251 253 254 256
300 296 291 286 280 273 268 262 260 258 256 257 259 261 262 264 264 263 261 259 257 254 253 251 250 248 247 245 244 242 242 242 243 244 244 244 245 247 248 250 251 253 255 256
301 298 296 292 285 278 273 266 264 261 260 260 262 263 262 265 266 265 263 261 258 255 253 252 251 249 247 245 243 242 242 242 244 245 245 244 246 247 249 251 253 255 256 257
303 300 298 294 290 282 280 272 268 265 263 262 263 264 266 265 265 265 264 263 260 257 255 253 251 250 249 248 245 243 244 244 244 245 245 244 245 247 249 251 253 255 256 258
306 302 299 296 293 289 284 278 274 269 267 264 264 265 266 265 265 265 265 265 263 260 257 255 253 251 249 249 246 243 244 244 244 245 245 245 246 249 250 252 253 255 257 258
306 304 301 297 295 293 290 283 279 273 269 266 265 266 266 266 265 265 265 265 263 261 259 257 255 254 251 249 247 245 245 244 244 244 244 245 246 249 250 252 255 257 257 258
302 301 300 297 294 293 292 287 284 278 274 270 269 267 266 265 266 266 266 266 263 261 260 258 257 255 253 250 248 247 246 246 245 245 246 247 248 250 251 254 256 256 257 258
301 299 299 298 295 295 292 288 284 280 276 273 271 270 268 266 267 267 268 267 264 263 262 260 259 257 255 252 249 248 247 248 248 248 249 250 250 251 252 254 255 257 257 259
302 301 300 299 296 293 290 288 285 281 277 274 273 272 270 269 268 268 268 267 264 263 263 263 262 260 257 254 251 250 250 251 251 251 251 252 252 253 253 254 255 257 258 260
302 302 300 300 298 293 290 287 285 281 277 274 274 273 273 272 271 269 269 268 266 264 265 264 263 261 260 258 256 254 252 253 253 254 254 254 254 255 255 256 257 258 259 260
302 301 299 297 296 291 289 286 284 281 279 277 277 275 275 274 272 270 269 267 265 265 266 265 265 264 261 259 258 256 255 255 255 255 255 255 256 256 258 258 259 260 261 262
302 299 296 295 292 289 289 286 284 283 282 280 279 278 276 274 272 270 268 267 266 266 267 267 267 266 263 260 259 258 257 255 255 255 255 256 257 258 260 260 261 262 263 264
Height
5648 5650 5651 5654 5657 5660 5662 5665 5669 5673 5676 5679 5681 5685 5691 5695 5699 5705 5712 5718 5725 5731 5736 5742 5748 5754 5759 5764 5769 5773 5777 5781 5784 5788 5791 5794 5797 5799 5802 5804 5806 5808 5810 5811
5644 5645 5647 5648 5650 5653 5655 5658 5662 5666 5669 5672 5674 5678 5683 5687 5691 5696 5702 5708 5715 5721 5727 5733 5739 5745 5750 5755 5760 5765 5769 5773 5777 5781 5784 5786 5789 5792 5794 5796 5798 5800 5802 5803
5639 5641 5641 5642 5644 5647 5649 5653 5656 5660 5663 5665 5668 5671 5676 5679 5683 5687 5693 5699 5705 5711 5717 5723 5729 5735 5741 5746 5751 5756 5761 5765 5769 5772 5775 5778 5781 5783 5786 5789 5790 5792 5794 5796
5635 5636 5636 5637 5639 5641 5644 5647 5650 5653 5656 5658 5661 5663 5669 5673 5676 5680 5685 5691 5696 5702 5708 5714 5720 5726 5732 5737 5742 5747 5751 5756 5759 5763 5766 5770 5773 5775 5778 5780 5782 5784 5786 5788
5631 5632 5632 5632 5635 5636 5639 5642 5645 5647 5649 5651 5654 5656 5662 5665 5668 5673 5677 5682 5688 5693 5699 5705 5710 5716 5722 5727 5732 5737 5742 5746 5750 5754 5758 5761 5764 5766 5769 5771 5774 5776 5777 5779
5628 5628 5628 5628 5630 5632 5634 5637 5639 5641 5642 5644 5648 5650 5654 5658 5662 5666 5670 5674 5679 5684 5690 5695 5701 5707 5712 5717 5722 5727 5732 5737 5741 5745 5748 5752 5755 5757 5760 5763 5765 5767 5768 5770
5625 5625 5624 5624 5625 5627 5629 5632 5633 5634 5635 5638 5642 5644 5648 5652 5656 5659 5663 5666 5670 5676 5681 5686 5691 5697 5702 5708 5713 5718 5722 5727 5732 5735 5739 5742 5745 5748 5751 5754 5756 5758 5760 5762
5621 5621 5621 5620 5621 5622 5624 5627 5629 5630 5631 5634 5636 5638 5644 5646 5650 5653 5656 5659 5662 5667 5671 5677 5682 5687 5692 5697 5702 5707 5712 5717 5721 5725 5729 5733 5736 5739 5741 5744 5746 5749 5751 5752
5617 5618 5618 5617 5617 5619 5620 5621 5624 5625 5626 5628 5629 5633 5637 5641 5644 5647 5649 5652 5656 5660 5664 5668 5673 5677 5682 5687 5692 5697 5702 5707 5711 5715 5719 5723 5726 5729 5732 5734 5737 5739 5741 5742
5615 5614 5615 5615 5614 5615 5617 5618 5620 5620 5620 5621 5624 5627 5631 5634 5637 5640 5643 5646 5649 5652 5656 5660 5664 5668 5672 5676 5681 5686 5690 5695 5700 5704 5708 5712 5715 5718 5721 5724 5726 5729 5730 5732
5612 5612 5612 5611 5611 5611 5613 5615 5615 5615 5616 5617 5618 5625 5626 5628 5630 5633 5636 5638 5641 5644 5648 5652 5656 5660 5663 5667 5671 5675 5680 5684 5689 5693 5697 5701 5704 5707 5710 5713 5716 5718 5720 5722
5609 5609 5608 5608 5608 5608 5609 5610 5611 5612 5613 5613 5614 5621 5620 5622 5623 5626 5628 5631 5634 5637 5640 5644 5647 5650 5654 5657 5661 5665 5670 5674 5678 5682 5686 5689 5692 5696 5699 5702 5705 5707 5710 5712
5606 5605 5605 5605 5607 5606 5605 5606 5606 5607 5608 5608 5609 5615 5614 5616 5617 5619 5621 5624 5626 5629 5632 5635 5638 5641 5644 5648 5652 5655 5659 5663 5667 5670 5674 5678 5681 5685 5688 5691 5694 5696 5698 5701
5602 5602 5602 5602 5601 5601 5601 5602 5602 5602 5602 5603 5605 5608 5609 5610 5611 5613 5614 5616 5618 5621 5623 5626 5629 5632 5635 5638 5641 5645 5649 5652 5656 5659 5663 5667 5670 5674 5677 5680 5682 5685 5687 5689
5599 5598 5597 5597 5597 5596 5597 5597 5597 5597 5598 5599 5601 5602 5603 5603 5604 5606 5607 5608 5610 5612 5614 5616 5619 5622 5625 5628 5631 5634 5637 5641 5645 5648 5652 5656 5659 5663 5666 5669 5671 5674 5676 5678
5595 5594 5593 5593 5592 5591 5591 5592 5592 5592 5592 5593 5594 5596 5597 5597 5597 5598 5600 5601 5602 5604 5605 5607 5609 5612 5615 5618 5620 5623 5627 5630 5634 5637 5641 5645 5649 5652 5654 5657 5660 5662 5664 5666
5592 5590 5589 5588 5587 5586 5586 5587 5586 5587 5587 5588 5589 5591 5590 5590 5591 5591 5592 5593 5593 5595 5596 5598 5600 5602 5605 5607 5610 5613 5616 5620 5623 5627 5630 5634 5637 5640 5643 5646 5649 5651 5653 5654
5588 5585 5583 5582 5582 5581 5584 5581 5581 5581 5581 5581 5582 5583 5583 5583 5584 5584 5585 5585 5585 5586 5587 5588 5590 5593 5595 5598 5600 5603 5606 5610 5613 5616 5619 5623 5626 5629 5632 5634 5636 5639 5641 5643
5584 5581 5579 5577 5576 5576 5577 5575 5574 5574 5575 5575 5575 5575 5575 5575 5576 5578 5578 5577 5577 5578 5579 5580 5581 5583 5585 5588 5590 5593 5596 5599 5602 5605 5608 5611 5614 5617 5620 5622 5624 5626 5629 5630
5580 5578 5576 5573 5571 5570 5573 5570 5567 5568 5568 5568 5567 5568 5568 5568 5569 5570 5570 5569 5569 5570 5571 5571 5572 5574 5575 5577 5579 5582 5585 5588 5591 5594 5597 5600 5603 5605 5608 5610 5612 5614 5616 5618
5576 5573 5571 5569 5566 5566 5566 5564 5562 5562 5562 5561 5560 5560 5560 5560 5561 5562 5561 5561 5561 5562 5562 5563 5564 5565 5566 5567 5570 5572 5575 5577 5580 5583 5585 5588 5591 5593 5596 5598 5600 5602 5604 5606
5571 5568 5567 5564 5562 5564 5560 5558 5557 5556 5555 5554 5553 5553 5553 5553 5553 5553 5553 5553 5553 5554 5554 5554 5555 5556 5556 5558 5560 5563 5565 5567 5569 5572 5574 5577 5579 5581 5583 5585 5587 5589 5591 5593
5566 5564 5561 5560 5560 5557 5554 5551 5550 5549 5548 5547 5546 5546 5546 5545 5545 5545 5545 5545 5545 5546 5546 5546 5546 5547 5547 5548 5550 5553 5555 5557 5559 5561 5563 5565 5567 5569 5571 5573 5575 5577 5579 5580
5560 5558 5556 5554 5553 5550 5548 5545 5544 5542 5541 5540 5540 5539 5538 5538 5537 5537 5537 5537 5537 5537 5537 5537 5537 5538 5539 5539 5541 5542 5544 5546 5548 5550 5552 5554 5556 5558 5560 5561 5563 5565 5566 5568
5554 5552 5549 5547 5546 5543 5542 5539 5538 5536 5535 5534 5533 5532 5531 5530 5530 5529 5529 5529 5529 5529 5529 5528 5528 5529 5529 5530 5531 5533 5534 5536 5538 5540 5541 5543 5545 5547 5548 5550 5551 5552 5554 5555
5549 5546 5543 5541 5539 5537 5536 5533 5532 5530 5529 5527 5525 5524 5523 5522 5521 5521 5521 5520 5520 5520 5520 5520 5520 5520 5520 5521 5522 5523 5524 5526 5527 5529 5531 5533 5534 5536 5537 5538 5540 5540 5542 5543